Location: Ecklingerode
(51.5036°N, 10.3122°E)
Time: 05:59:50
(UTC+00:00)

CZ-4B R/B - Pass Details

Date: 29 October 2020
Orbit: 388 x 461 km, 97.6° (Epoch: 01 December)

Event Time Altitude Azimuth Distance (km) Brightness Sun altitude
Rises 17:05:52 0° 14° (NNE) 2,403 4.9 -11.3°
Reaches altitude 10° 17:07:55 10° 14° (NNE) 1,518 3.9 -11.6°
Maximum altitude 17:11:09 87° 104° (ESE) 421 1.2 -12.1°
Drops below altitude 10° 17:14:17 10° 194° (SSW) 1,464 4.3 -12.6°
Sets 17:16:13 0° 195° (SSW) 2,308 5.3 -12.9°
